Flag for Slovenia Weather past 2 weeks in Celje, Slovenia

Now
45 °F

Cool.


Feels Like: 45 °F
Forecast: 29 / 63 °F
Wind: 1 mph from Northeast

Location: Celje

Current Time: Apr 19, 2015 at 12:35:48 PM

Latest Report: Apr 19, 2015 at 11:00 AM


Visibility: N/A

Pressure: 30.25 "Hg

Humidity: 73%

Dew point: 37 °F

Location of CeljeLocation

Historic Weather in Celje — Graph

°F

Celje temperature yesterday

Maximum temperature yesterday: 53 °F (at 3:00 AM)
Minimum temperature yesterday: 37 °F (at 11:00 PM)
Average temperature yesterday: 45 °F

Past Weeks' High & Low Weather Summary

 TemperatureHumidityPressure
High77 °F (Apr 15, 4:00 PM)98% (Apr 19, 5:00 AM)30.52 "Hg (Apr 19, 5:00 AM)
Low26 °F (Apr 6, 7:00 AM)28% (Apr 15, 5:00 PM)29.86 "Hg (Apr 17, 6:00 PM)
Average51 °F62%30.20 "Hg
* Reported Apr 4 11:00 AM — Apr 19 11:00 AM, Celje, Weather by CustomWeather, © 2015

Note: Actual official high and low records may vary slightly from our data, if they occured in-between our weather recording intervals... More about our weather records

Advertising

Celje weather history for previous 24 hours

 ConditionsComfort  
Time TempWeatherWind HumidityBarometerVisibility
11:00 AM
Sun, Apr 19
45 °FCool.1 mph73%30.25 "HgN/A
10:00 AM39 °FChilly.1 mph89%30.27 "HgN/A
9:00 AM37 °FFog.1 mph96%30.28 "Hg1 mi
8:00 AM36 °FFog.2 mph97%30.28 "Hg1 mi
7:00 AM36 °FChilly.1 mph97%30.27 "HgN/A
6:00 AM36 °FChilly.1 mph97%30.27 "HgN/A
5:00 AM37 °FChilly.1 mph98%30.26 "HgN/A
4:00 AM37 °FChilly.1 mph97%30.27 "HgN/A
3:00 AM37 °FChilly.1 mph97%30.27 "HgN/A
2:00 AM38 °FChilly.2 mph97%30.28 "HgN/A
1:00 AM37 °FChilly.1 mph97%30.28 "HgN/A
12:00 AM36 °FChilly.1 mph97%30.28 "HgN/A
11:00 PM
Sat, Apr 18
37 °FChilly.1 mph96%30.26 "HgN/A
10:00 PM39 °FChilly.1 mph94%30.25 "HgN/A
9:00 PM41 °FQuite cool.2 mph93%30.23 "HgN/A
8:00 PM43 °FPassing clouds.No wind90%30.19 "Hg9 mi
7:00 PM45 °FCool.1 mph85%30.18 "HgN/A
6:00 PM46 °FCool.1 mph75%30.17 "HgN/A
5:00 PM46 °FCool.2 mph76%30.17 "HgN/A
4:00 PM45 °FQuite cool.3 mph84%30.16 "HgN/A
3:00 PM44 °FLight rain. Low clouds.1 mph83%30.17 "Hg5 mi
2:00 PM44 °FLight rain. Low clouds.No wind83%30.18 "Hg4 mi
1:00 PM43 °FQuite cool.1 mph84%30.16 "HgN/A
12:00 PM42 °FQuite cool.3 mph82%30.16 "HgN/A
Weather by CustomWeather, © 2015

See weather overviewHow to use our weather pages